Location: Campillo
(40.8621°N, 4.2488°W)
Time: 17:20:56
(UTC+00:00)

Cosmos 2084 - Pass Details

Date: 04 October 2021
Orbit: 528 x 653 km, 62.8° (Epoch: 28 October)

Event Time Altitude Azimuth Distance (km) Brightness Sun altitude
Exits shadow 04:24:46 14° 340° (NNW) 1,561 5.5 -21.8°
Drops below altitude 10° 04:26:12 10° 360° (N) 1,827 6.1 -21.6°
Sets 04:29:15 0° 23° (NNE) 2,749 7.4 -21.0°
